TimeEST,TemperatureF,Dew PointF,Humidity,Sea Level PressureIn,VisibilityMPH,Wind Direction,Wind SpeedMPH,Gust SpeedMPH,PrecipitationIn,Events,Conditions,WindDirDegrees,DateUTC
12:56 AM,37.9,28.0,68,30.25,-9999.0,NNW,9.2,-,N/A,,Unknown,330,2012-11-04 04:56:00
1:56 AM,37.9,28.9,70,30.25,-9999.0,NNW,11.5,-,N/A,,Unknown,340,2012-11-04 05:56:00
1:56 AM,37.9,28.9,70,30.24,-9999.0,NNW,10.4,-,N/A,,Unknown,340,2012-11-04 06:56:00
2:56 AM,37.9,28.9,70,30.24,-9999.0,NNW,10.4,-,N/A,,Unknown,340,2012-11-04 07:56:00
3:56 AM,37.9,28.0,68,30.24,-9999.0,NNW,10.4,-,N/A,,Unknown,340,2012-11-04 08:56:00
4:56 AM,37.9,28.9,70,30.24,-9999.0,NNW,9.2,-,N/A,,Unknown,330,2012-11-04 09:56:00
5:56 AM,39.0,28.9,67,30.24,-9999.0,NNW,11.5,-,N/A,,Unknown,340,2012-11-04 10:56:00
6:56 AM,39.0,30.0,70,30.25,-9999.0,NNW,11.5,-,N/A,,Unknown,330,2012-11-04 11:56:00
7:56 AM,39.0,30.0,70,30.25,-9999.0,North,10.4,-,N/A,,Unknown,350,2012-11-04 12:56:00
8:56 AM,39.0,32.0,76,30.25,-9999.0,North,11.5,-,N/A,,Unknown,360,2012-11-04 13:56:00
9:56 AM,39.0,30.9,73,30.25,-9999.0,North,12.7,-,N/A,,Unknown,350,2012-11-04 14:56:00
10:56 AM,39.0,30.9,73,30.25,-9999.0,NNE,13.8,-,N/A,,Unknown,30,2012-11-04 15:56:00
11:56 AM,39.0,30.0,70,30.25,-9999.0,North,13.8,-,N/A,,Unknown,10,2012-11-04 16:56:00
12:56 PM,39.0,30.0,70,30.25,-9999.0,North,12.7,-,N/A,,Unknown,10,2012-11-04 17:56:00
1:56 PM,39.0,28.0,65,30.24,-9999.0,North,13.8,-,N/A,,Unknown,10,2012-11-04 18:56:00
2:56 PM,37.9,28.0,68,30.24,-9999.0,North,9.2,19.6,N/A,,Unknown,360,2012-11-04 19:56:00
3:56 PM,37.0,28.0,70,30.24,-9999.0,North,16.1,-,N/A,,Unknown,10,2012-11-04 20:56:00
4:56 PM,36.0,27.0,70,30.26,-9999.0,North,10.4,23.0,N/A,,Unknown,10,2012-11-04 21:56:00
5:56 PM,36.0,27.0,70,30.25,-9999.0,North,9.2,-,N/A,,Unknown,350,2012-11-04 22:56:00
6:56 PM,36.0,26.1,67,30.26,-9999.0,NNW,10.4,-,N/A,,Unknown,340,2012-11-04 23:56:00
7:56 PM,35.1,28.9,78,30.27,-9999.0,NNW,10.4,-,N/A,,Unknown,340,2012-11-05 00:56:00
8:56 PM,36.0,28.0,73,30.26,-9999.0,NE,15.0,-,N/A,,Unknown,50,2012-11-05 01:56:00
9:56 PM,37.0,28.9,73,30.26,-9999.0,NE,16.1,25.3,N/A,,Unknown,50,2012-11-05 02:56:00
10:56 PM,36.0,27.0,70,30.27,-9999.0,ENE,13.8,-,N/A,,Unknown,60,2012-11-05 03:56:00